Content
SEND FEEDBACK

Daily
Averages
Monthly
Summary
United Kingdom

BRADWELL, ENGLAND


Home > Europe > United Kingdom > England
Elevation: 7 feet     Latitude: 52 36N     Longitude: 001 42E

WEATHER
 
SELECT A DAY
Number of Records: 210,275;   Date Range: 7/1/96 - 8/29/14
 
SHARE

PRINT THIS DATA

[ ← Previous Day ]
WEATHER ALMANAC - JANUARY 29, 2014
[ Next Day → ]
[ °C ]   °F
Weather ElementAverageHighLow
Temperature41.1 °F44.6 °F (12:50 am)37.4 °F (8:20 pm)
Dewpoint37.9 °F41 °F (12:50 am)33.8 °F (7:20 pm)
Humidity88.4 %93 % (1:50 am)81 % (7:20 pm)
Barometer29.46 in29.59 in (8:20 pm)29.30 in (12:50 am)
Wind Speed13.9 mph17.3 mph (9:50 am)
Weather ElementAverage
Visibility5.2 mi
Wind DirectionE (92.3 °)

Weather ElementTotal
Precipitation---
Heating Degree Days24 (Base 65)
Averaged from 44 records on January 29, 2014
WEATHER CONDITIONS BREAKOUT
WIND DIRECTION BREAKOUT
WEATHER BY HOUR - JANUARY 29, 2014
[ °C ]   °F
Local TimeTemperatureDewpointHumidityBarometerVisibilityWind DirectionWind SpeedGust SpeedPrecipitationEventsConditions
12:50 AM44.6 °F41.0 °F87 %29.30 in6.2 miSE (130°)13.8 mphOvercast
1:20 AM44.6 °F41.0 °F87 %29.33 in6.2 miSE (130°)13.8 mphRainRain
1:50 AM42.8 °F41.0 °F93 %29.33 in6.2 miSE (130°)12.7 mphMostly Cloudy
2:20 AM42.8 °F41.0 °F93 %29.33 in6.2 miESE (120°)11.5 mphRainLight Rain
2:50 AM42.8 °F41.0 °F93 %29.33 in6.2 miESE (120°)10.4 mphMostly Cloudy
3:20 AM42.8 °F41.0 °F93 %29.36 in6.2 miESE (120°)11.5 mphMostly Cloudy
3:50 AM42.8 °F41.0 °F93 %29.36 in6.2 miESE (120°)12.7 mphMostly Cloudy
4:20 AM42.8 °F41.0 °F93 %29.36 in6.2 miESE (120°)11.5 mphMostly Cloudy
4:50 AM42.8 °F41.0 °F93 %29.36 in5.6 miESE (110°)10.4 mphRainLight Rain
5:20 AM42.8 °F41.0 °F93 %29.36 in6.2 miEast (100°)10.4 mphRainLight Rain
5:50 AM42.8 °F41.0 °F93 %29.36 in6.2 miEast (100°)10.4 mphRainLight Rain
6:20 AM42.8 °F41.0 °F93 %29.39 in6.2 miEast (100°)11.5 mphRainLight Rain
6:50 AM42.8 °F41.0 °F93 %29.39 in6.2 miEast (100°)10.4 mphRainLight Rain
7:20 AM42.8 °F41.0 °F93 %29.39 in6.2 miEast (90°)13.8 mphMostly Cloudy
7:50 AM42.8 °F39.2 °F87 %29.42 in6.2 miEast (100°)15.0 mphScattered Clouds
8:20 AM42.8 °F39.2 °F87 %29.42 in6.2 miEast (90°)13.8 mphScattered Clouds
8:50 AM42.8 °F39.2 °F87 %29.42 in6.2 miEast (100°)13.8 mphPartly Cloudy
9:50 AM42.8 °F39.2 °F87 %29.44 in6.2 miEast (90°)17.3 mphPartly Cloudy
10:20 AM42.8 °F39.2 °F87 %29.44 in6.2 miEast (90°)16.1 mphPartly Cloudy
11:20 AM42.8 °F39.2 °F87 %29.44 in6.2 miEast (100°)16.1 mphScattered Clouds
11:50 AM42.8 °F39.2 °F87 %29.47 in6.2 miEast (90°)17.3 mphMostly Cloudy
12:20 PM41.0 °F39.2 °F93 %29.47 in5.6 miEast (90°)17.3 mphMostly Cloudy
12:50 PM41.0 °F37.4 °F87 %29.47 in5.6 miEast (90°)17.3 mphMostly Cloudy
1:20 PM41.0 °F37.4 °F87 %29.47 in5.6 miEast (90°)17.3 mphMostly Cloudy
1:50 PM41.0 °F37.4 °F87 %29.47 in5.6 miEast (90°)17.3 mphMostly Cloudy
2:20 PM41.0 °F37.4 °F87 %29.47 in5.6 miEast (80°)17.3 mphMostly Cloudy
2:50 PM41.0 °F37.4 °F87 %29.47 in5.6 miEast (80°)15.0 mphMostly Cloudy
3:20 PM39.2 °F35.6 °F87 %29.50 in5.0 miEast (80°)15.0 mphMostly Cloudy
3:50 PM39.2 °F35.6 °F87 %29.50 in4.3 miEast (80°)15.0 mphMostly Cloudy
4:20 PM39.2 °F35.6 °F87 %29.50 in4.3 miEast (80°)13.8 mphMostly Cloudy
4:50 PM39.2 °F35.6 °F87 %29.53 in5.0 miEast (80°)15.0 mphMostly Cloudy
5:20 PM39.2 °F35.6 °F87 %29.53 in5.0 miEast (80°)15.0 mphMostly Cloudy
5:50 PM39.2 °F35.6 °F87 %29.53 in5.0 miENE (70°)13.8 mphMostly Cloudy
6:20 PM39.2 °F35.6 °F87 %29.56 in3.7 miEast (80°)15.0 mphOvercast
6:50 PM39.2 °F35.6 °F87 %29.56 in3.7 miEast (80°)15.0 mphMostly Cloudy
7:20 PM39.2 °F33.8 °F81 %29.56 in3.7 miEast (80°)15.0 mphMostly Cloudy
7:50 PM39.2 °F35.6 °F87 %29.56 in3.7 miEast (80°)15.0 mphOvercast
8:20 PM37.4 °F33.8 °F87 %29.59 in3.7 miEast (80°)13.8 mphMostly Cloudy
8:50 PM37.4 °F33.8 °F87 %29.59 in3.1 miENE (70°)13.8 mphHaze
9:50 PM39.2 °F35.6 °F87 %29.59 in3.1 miENE (70°)13.8 mphHaze
10:20 PM39.2 °F33.8 °F81 %29.59 in3.1 miENE (70°)13.8 mphHaze
10:50 PM37.4 °F33.8 °F87 %29.59 in3.1 miENE (70°)11.5 mphHaze
11:20 PM39.2 °F35.6 °F87 %29.59 in3.7 miENE (70°)10.4 mphOvercast
11:50 PM39.2 °F33.8 °F81 %29.59 in3.7 miENE (70°)10.4 mphOvercast
Hourly data recorded from EGSH, located miles away from Bradwell, England







STORIES FROM OUR PARTNERS